Luverne, MN

3:05 PM CST on February 22, 2018 (GMT -0600)
Luverne

Weather History for KLYV - April, 2013

Change the Weather History Date:

Sunday, April 14, 2013

  Actual Average (KPQN) Record (KPQN)
Temperature  
Mean Temperature 34 °F -  
Max Temperature 37 °F 53 °F 84 °F (2003)
Min Temperature 32 °F 33 °F 21 °F (2014)
Degree Days  
Heating Degree Days 30    
Moisture  
Dew Point 32 °F    
Average Humidity 90    
Maximum Humidity 93    
Minimum Humidity 81    
Precipitation  
Precipitation 0.00 in - - ()
Sea Level Pressure  
Sea Level Pressure 29.51 in    
Wind  
Wind Speed 20 mph (ESE)    
Max Wind Speed 28 mph    
Max Gust Speed 36 mph    
Visibility 8 miles    
Events Rain    
Averages and records for this station are not official NWS values.
T = Trace of Precipitation, MM = Missing Value Source: NWS Daily Summary

Daily Weather History Graph

Daily Weather History Graph

Search for Another Location

Airport or City:

Trip Planner

Search our weather history database for the weather conditions in past years. The results will help you decide how hot, cold, wet, or windy it might be!

Date:

Astronomy

Apr. 14, 2013 Rise Set
Actual Time 6:43 AM CDT 8:07 PM CDT
Civil Twilight 6:13 AM CDT 8:37 PM CDT
Nautical Twilight 5:37 AM CDT 9:13 PM CDT
Astronomical Twilight 4:59 AM CDT 9:51 PM CDT
Moon 9:15 AM CDT (4/14) No Moon Set
Length of Visible Light 14h 23m
Length of Day
13h 24m
Waxing Crescent, 17% of the Moon is Illuminated
Apr 14
Waxing Crescent
Apr 18
First Quarter
Apr 25
Full
May 2
Last Quarter
May 9
New

Hourly Weather History & Observations

Time (CDT) Temp. Windchill Dew Point Humidity Pressure Visibility Wind Dir Wind Speed Gust Speed Precip Events Conditions
12:16 AM 33.8 °F 22.5 °F 30.2 °F 87% 29.76 in 10.0 mi East 19.6 mph 25.3 mph N/A Rain Light Rain
12:36 AM 32.0 °F 20.1 °F 30.2 °F 93% 29.74 in 10.0 mi East 19.6 mph 25.3 mph N/A   Overcast
12:57 AM 32.0 °F 20.1 °F 30.2 °F 93% 29.73 in 10.0 mi East 19.6 mph 23.0 mph N/A   Overcast
1:16 AM 32.0 °F 20.1 °F 30.2 °F 93% 29.71 in 10.0 mi East 19.6 mph 28.8 mph N/A   Overcast
1:36 AM 32.0 °F 19.2 °F 30.2 °F 93% 29.70 in 10.0 mi East 23.0 mph 28.8 mph N/A   Overcast
1:57 AM 32.0 °F 20.8 °F 30.2 °F 93% 29.72 in 10.0 mi East 17.3 mph 24.2 mph N/A   Overcast
2:16 AM 33.8 °F 23.9 °F 30.2 °F 87% 29.72 in 10.0 mi East 15.0 mph - N/A   Overcast
2:36 AM 33.8 °F 22.2 °F 30.2 °F 87% 29.71 in 10.0 mi East 20.7 mph 26.5 mph N/A   Overcast
2:57 AM 33.8 °F 21.9 °F 30.2 °F 87% 29.69 in 10.0 mi East 21.9 mph 29.9 mph N/A   Overcast
3:16 AM 33.8 °F 21.6 °F 30.2 °F 87% 29.68 in 10.0 mi East 23.0 mph 29.9 mph N/A   Overcast
3:37 AM 33.8 °F 22.5 °F 32.0 °F 93% 29.66 in 10.0 mi East 19.6 mph 32.2 mph N/A   Overcast
3:56 AM 33.8 °F 21.6 °F 32.0 °F 93% 29.66 in 10.0 mi East 23.0 mph 28.8 mph N/A   Overcast
4:17 AM 33.8 °F 21.6 °F 32.0 °F 93% 29.64 in 10.0 mi East 23.0 mph 28.8 mph N/A   Overcast
4:37 AM 33.8 °F 21.9 °F 32.0 °F 93% 29.62 in 10.0 mi East 21.9 mph 29.9 mph N/A   Overcast
4:56 AM 33.8 °F 22.2 °F 32.0 °F 93% 29.60 in 10.0 mi East 20.7 mph 27.6 mph N/A   Overcast
5:17 AM 33.8 °F 21.3 °F 32.0 °F 93% 29.60 in 10.0 mi East 24.2 mph 31.1 mph N/A   Overcast
5:37 AM 33.8 °F 21.0 °F 32.0 °F 93% 29.58 in 10.0 mi East 25.3 mph 31.1 mph N/A   Overcast
5:56 AM 33.8 °F 21.3 °F 32.0 °F 93% 29.56 in 10.0 mi East 24.2 mph 31.1 mph N/A   Overcast
6:17 AM 33.8 °F 21.3 °F 32.0 °F 93% 29.55 in 10.0 mi East 24.2 mph 31.1 mph N/A   Overcast
6:37 AM 33.8 °F 21.3 °F 32.0 °F 93% 29.55 in 10.0 mi East 24.2 mph 28.8 mph N/A   Overcast
6:56 AM 33.8 °F 22.2 °F 32.0 °F 93% 29.54 in 10.0 mi East 20.7 mph 32.2 mph N/A   Overcast
7:17 AM 33.8 °F 21.0 °F 32.0 °F 93% 29.53 in 10.0 mi East 25.3 mph 31.1 mph N/A   Overcast
7:37 AM 33.8 °F 21.3 °F 32.0 °F 93% 29.52 in 10.0 mi East 24.2 mph 34.5 mph N/A   Overcast
7:48 AM 33.8 °F 21.3 °F 32.0 °F 93% 29.52 in 10.0 mi East 24.2 mph 34.5 mph N/A   Overcast
7:49 AM 33.8 °F 21.6 °F 32.0 °F 93% 29.52 in 10.0 mi East 23.0 mph 34.5 mph N/A   Overcast
8:37 AM 33.8 °F 20.5 °F 32.0 °F 93% 29.48 in 5.0 mi East 27.6 mph 32.2 mph N/A   Mist
8:42 AM 33.8 °F 20.5 °F 32.0 °F 93% 29.47 in 5.0 mi East 27.6 mph 32.2 mph N/A   Mist
8:43 AM 33.8 °F 20.8 °F 32.0 °F 93% 29.48 in 5.0 mi East 26.5 mph 32.2 mph N/A   Overcast
9:37 AM 33.8 °F 23.5 °F 32.0 °F 93% 29.48 in 5.0 mi East 16.1 mph 25.3 mph N/A   Mist
9:56 AM 33.8 °F 23.5 °F 32.0 °F 93% 29.48 in 5.0 mi East 16.1 mph 21.9 mph N/A   Overcast
10:17 AM 33.8 °F 23.5 °F 32.0 °F 93% 29.46 in 5.0 mi East 16.1 mph 21.9 mph N/A   Overcast
10:36 AM 35.6 °F 25.9 °F 32.0 °F 87% 29.44 in 4.0 mi East 16.1 mph 21.9 mph N/A   Overcast
10:56 AM 35.6 °F 25.5 °F 32.0 °F 87% 29.44 in 4.0 mi East 17.3 mph - N/A   Overcast
11:17 AM 35.6 °F 24.2 °F 32.0 °F 87% 29.43 in 4.0 mi East 21.9 mph 26.5 mph N/A   Overcast
11:36 AM 35.6 °F 24.8 °F 32.0 °F 87% 29.42 in 4.0 mi East 19.6 mph 25.3 mph N/A   Overcast
11:56 AM 35.6 °F 24.5 °F 33.8 °F 93% 29.41 in 4.0 mi East 20.7 mph 24.2 mph N/A   Overcast
12:17 PM 35.6 °F 25.5 °F 33.8 °F 93% 29.41 in 5.0 mi East 17.3 mph - N/A   Overcast
12:36 PM 35.6 °F 25.9 °F 33.8 °F 93% 29.41 in 5.0 mi ESE 16.1 mph 20.7 mph N/A   Overcast
12:56 PM 35.6 °F 26.2 °F 33.8 °F 93% 29.40 in 5.0 mi ESE 15.0 mph 20.7 mph N/A   Overcast
1:17 PM 35.6 °F 25.2 °F 33.8 °F 93% 29.38 in 5.0 mi ESE 18.4 mph - N/A   Overcast
1:36 PM 35.6 °F 23.2 °F 33.8 °F 93% 29.31 in 4.0 mi ESE 26.5 mph 33.4 mph N/A   Overcast
1:56 PM 37.4 °F 27.8 °F 33.8 °F 87% 29.33 in 3.0 mi ESE 17.3 mph 25.3 mph N/A   Overcast
2:16 PM 37.4 °F - 33.8 °F 87% 29.37 in 4.0 mi Calm Calm - N/A   Overcast
2:36 PM 37.4 °F 29.3 °F 35.6 °F 93% 29.37 in 4.0 mi ESE 12.7 mph - N/A   Overcast
3:17 PM 37.4 °F 34.9 °F 35.6 °F 93% 29.36 in 2.5 mi East 3.5 mph - N/A   Overcast
3:37 PM 37.4 °F - 35.6 °F 93% 29.35 in 1.5 mi Calm Calm - N/A   Drizzle
3:56 PM 37.4 °F - 35.6 °F 93% 29.36 in 1.2 mi Calm Calm - N/A   Drizzle
4:16 PM 37.4 °F - 35.6 °F 93% 29.36 in 0.8 mi Calm Calm - N/A   Heavy Drizzle
4:37 PM 37.4 °F - 35.6 °F 93% 29.37 in 0.5 mi Calm Calm - N/A   Drizzle
4:56 PM 37.4 °F 30.8 °F 35.6 °F 93% 29.39 in 1.0 mi WSW 9.2 mph - N/A   Overcast
5:16 PM 37.4 °F 26.6 °F 35.6 °F 93% 29.40 in 3.0 mi WSW 21.9 mph - N/A   Overcast
5:37 PM 37.4 °F 28.9 °F 33.8 °F 87% 29.41 in 5.0 mi WSW 13.8 mph - N/A   Overcast
5:56 PM 35.6 °F 25.5 °F 33.8 °F 93% 29.43 in 7.0 mi WSW 17.3 mph - N/A   Mostly Cloudy
6:16 PM 37.4 °F 27.2 °F 32.0 °F 81% 29.44 in 10.0 mi West 19.6 mph - N/A   Scattered Clouds
6:37 PM 37.4 °F 26.6 °F 32.0 °F 81% 29.45 in 10.0 mi West 21.9 mph - N/A   Scattered Clouds
6:56 PM 37.4 °F 26.1 °F 32.0 °F 81% 29.46 in 10.0 mi West 24.2 mph 28.8 mph N/A   Scattered Clouds
7:16 PM 37.4 °F 27.2 °F 32.0 °F 81% 29.46 in 10.0 mi West 19.6 mph 25.3 mph N/A   Mostly Cloudy
7:37 PM 37.4 °F 27.2 °F 32.0 °F 81% 29.47 in 10.0 mi West 19.6 mph 25.3 mph N/A   Scattered Clouds
7:56 PM 35.6 °F 24.0 °F 32.0 °F 87% 29.48 in 10.0 mi WSW 23.0 mph 27.6 mph N/A   Clear
8:16 PM 35.6 °F 24.0 °F 32.0 °F 87% 29.49 in 10.0 mi WSW 23.0 mph 29.9 mph N/A   Clear
8:37 PM 35.6 °F 23.4 °F 30.2 °F 81% 29.50 in 10.0 mi WSW 25.3 mph - N/A   Clear
8:56 PM 35.6 °F 24.2 °F 30.2 °F 81% 29.51 in 10.0 mi West 21.9 mph 26.5 mph N/A   Clear
9:16 PM 35.6 °F 24.5 °F 30.2 °F 81% 29.51 in 10.0 mi WSW 20.7 mph - N/A   Clear
9:37 PM 33.8 °F 23.2 °F 30.2 °F 87% 29.52 in 10.0 mi WSW 17.3 mph - N/A   Clear
9:56 PM 33.8 °F 23.5 °F 30.2 °F 87% 29.52 in 10.0 mi WSW 16.1 mph - N/A   Clear
10:16 PM 33.8 °F 22.5 °F 30.2 °F 87% 29.52 in 10.0 mi WSW 19.6 mph - N/A   Clear
10:37 PM 33.8 °F 21.9 °F 30.2 °F 87% 29.52 in 10.0 mi WSW 21.9 mph 25.3 mph N/A   Clear
10:56 PM 33.8 °F 21.3 °F 30.2 °F 87% 29.53 in 10.0 mi WSW 24.2 mph - N/A   Clear
11:16 PM 33.8 °F 21.9 °F 28.4 °F 81% 29.53 in 10.0 mi WSW 21.9 mph - N/A   Clear
11:37 PM 33.8 °F 21.9 °F 28.4 °F 81% 29.53 in 10.0 mi WSW 21.9 mph 28.8 mph N/A   Clear
11:56 PM 33.8 °F 21.0 °F 28.4 °F 81% 29.53 in 10.0 mi WSW 25.3 mph 35.7 mph N/A   Clear